Date,TemperatureHighF,TemperatureAvgF,TemperatureLowF,DewpointHighF,DewpointAvgF,DewpointLowF,HumidityHigh,HumidityAvg,HumidityLow,PressureMaxIn,PressureMinIn,WindSpeedMaxMPH,WindSpeedAvgMPH,GustSpeedMaxMPH,PrecipitationSumIn
2013-3-1,67.8,50.7,31.8,37.1,27.7,8.2,89,50,10,30.23,30.04,24,5,24,0.00
2013-3-2,64.0,49.8,37.4,36.2,32.0,25.7,77,53,27,30.36,30.16,15,4,15,0.00
2013-3-3,77.5,57.9,39.6,43.2,32.5,22.4,72,44,14,30.16,29.81,15,2,15,0.00
2013-3-4,87.8,70.0,58.1,51.8,42.6,20.7,72,43,10,29.81,29.60,11,2,11,0.00
2013-3-5,71.8,56.2,43.5,49.6,24.7,0.4,67,35,10,30.30,29.67,28,8,28,0.00
2013-3-6,66.7,49.6,32.0,29.0,19.6,5.9,78,37,10,30.38,30.12,8,2,8,0.00
2013-3-7,73.4,58.6,40.1,55.5,41.7,23.1,77,54,39,30.16,29.99,6,2,6,0.00
2013-3-8,65.3,62.0,59.0,64.5,59.7,55.1,99,92,77,30.06,29.90,5,2,5,0.00
2013-3-9,76.8,68.5,61.9,68.3,64.6,49.7,99,88,73,29.91,29.54,15,3,15,0.00
2013-3-10,62.1,58.8,50.4,61.4,42.5,31.2,99,58,32,30.02,29.67,21,8,21,0.00
2013-3-11,69.3,51.7,39.4,39.0,29.0,12.8,90,48,15,30.12,29.91,18,4,18,0.00
2013-3-12,81.7,60.6,40.8,43.3,33.1,18.8,74,42,11,30.23,29.96,11,2,11,0.00
2013-3-13,78.8,61.2,43.9,41.2,37.0,33.8,77,44,21,30.35,30.17,6,1,6,0.00
2013-3-14,81.0,64.2,50.0,53.5,45.1,37.1,86,53,26,30.29,30.12,10,1,10,0.00
2013-3-15,83.5,68.5,55.4,57.0,51.2,44.7,93,59,32,30.14,29.88,8,2,8,0.00
2013-3-16,87.6,71.9,59.7,62.8,55.2,49.7,86,59,30,29.91,29.64,8,2,8,0.00
2013-3-17,84.6,73.1,65.8,63.5,61.2,58.8,85,68,43,29.73,29.57,8,2,8,0.00
2013-3-18,82.2,71.0,61.5,66.1,54.3,38.6,99,62,24,29.88,29.62,16,3,16,0.00
2013-3-19,87.6,67.0,47.3,64.1,53.1,44.2,92,64,35,29.96,29.73,11,1,11,0.00
2013-3-20,75.2,62.7,52.2,56.0,43.1,24.2,96,56,15,30.19,29.94,14,3,14,0.00
2013-3-21,79.7,66.3,54.3,60.8,52.9,39.7,82,62,51,29.95,29.52,10,2,10,0.00
2013-3-22,78.6,69.4,57.2,66.5,60.3,47.9,94,74,50,29.71,29.55,10,3,10,0.00
2013-3-23,80.6,62.5,52.2,61.9,53.4,47.6,94,75,38,29.74,29.51,7,2,7,0.00
2013-3-24,65.1,51.9,42.3,60.7,34.1,20.3,90,54,23,30.11,29.61,27,12,27,0.00
2013-3-25,61.3,48.6,35.2,26.2,19.0,3.9,59,34,12,30.31,30.08,13,3,13,0.00
2013-3-26,70.0,50.6,31.1,36.7,23.1,6.1,90,43,10,30.40,29.97,6,2,6,0.00
2013-3-27,73.8,58.8,44.1,49.1,39.4,22.4,70,50,35,30.21,30.04,7,2,7,0.00
2013-3-28,75.0,63.9,53.1,61.3,56.1,48.8,88,76,59,30.11,30.02,6,2,6,0.00
2013-3-29,81.3,69.6,56.5,62.3,58.3,55.5,99,70,44,30.08,29.95,7,2,7,0.00
2013-3-30,86.0,73.1,64.4,64.3,61.9,57.8,91,70,45,30.00,29.79,8,2,8,0.00
2013-3-31,79.3,71.2,63.9,72.3,65.9,60.9,97,84,69,29.90,29.77,8,1,8,0.00